Weather History for Dubuque, IA

Change the Weather History Date:

Friday, June 21, 2013

  Actual Average Record
Temperature  
Mean Temperature 71 °F 70 °F  
Max Temperature 77 °F 80 °F 100 °F (1988)
Min Temperature 64 °F 60 °F 42 °F (1992)
Degree Days  
Heating Degree Days 0 1  
Month to date heating degree days 39 36  
Since 1 June heating degree days 39 36  
Since 1 July heating degree days 7296 7082  
Cooling Degree Days 6 6  
Month to date cooling degree days 63 82  
Year to date cooling degree days 108 119  
Since 1 June cooling degree days 63 82  
Growing Degree Days 20 (Base 50)    
Moisture  
Dew Point 65 °F    
Average Humidity 87    
Maximum Humidity 100    
Minimum Humidity 73    
Precipitation  
Precipitation 0.24 in 0.15 in 1.47 in (1997)
Month to date precipitation 1.85 3.12  
Year to date precipitation 23.43 15.99  
Snow  
Snow 0.00 in 0.00 in - ()
Month to date snowfall 0.0 0.0  
Since 1 June snowfall 0.0 0.0  
Since 1 July snowfall 54.5 41.9  
Snow Depth 0.00 in    
Sea Level Pressure  
Sea Level Pressure 30.01 in    
Wind  
Wind Speed 14 mph (SSE)    
Max Wind Speed 28 mph    
Max Gust Speed 38 mph    
Visibility 9 miles    
Events Rain , Thunderstorm    
T = Trace of Precipitation, MM = Missing Value Source: NWS Daily Summary

Daily Weather History Graph

Daily Weather History Graph

Search for Another Location

Airport:

Trip Planner

Search our weather history database for the weather conditions in past years. The results will help you decide how hot, cold, wet, or windy it might be!

Date:

Astronomy

Jun. 21, 2013 Rise Set
Actual Time 5:25 AM CDT 8:43 PM CDT
Civil Twilight 4:51 AM CDT 9:18 PM CDT
Nautical Twilight 4:06 AM CDT 10:03 PM CDT
Astronomical Twilight 3:10 AM CDT 10:58 PM CDT
Moon 6:52 PM CDT (6/21) 3:43 AM CDT (6/21)
Length of Visible Light 16h 27m
Length of Day
15h 17m
Waxing Gibbous, 95% of the Moon is Illuminated
Jun 21
Waxing Gibbous
Jun 23
Full
Jun 29
Last Quarter
Jul 8
New
Jul 15
First Quarter

Hourly Weather History & Observations

Time (CDT) Temp. Dew Point Humidity Pressure Visibility Wind Dir Wind Speed Gust Speed Precip Events Conditions
12:53 AM 73.9 °F 64.0 °F 71% 30.02 in 10.0 mi South 11.5 mph - N/A   Partly Cloudy
1:51 AM 73.4 °F 64.4 °F 73% 30.05 in 10.0 mi SSE 9.2 mph - N/A Thunderstorm Thunderstorm
1:53 AM 73.9 °F 64.0 °F 71% 30.02 in 10.0 mi SSE 9.2 mph - N/A Thunderstorm Thunderstorm
2:10 AM 75.2 °F 64.4 °F 69% 30.05 in 10.0 mi SSE 9.2 mph - N/A   Overcast
2:53 AM 73.0 °F 64.9 °F 76% 30.00 in 10.0 mi South 15.0 mph - 0.00 in   Scattered Clouds
3:53 AM 73.0 °F 64.9 °F 76% 29.98 in 10.0 mi South 15.0 mph - N/A   Clear
4:53 AM 73.9 °F 66.0 °F 76% 29.98 in 10.0 mi South 15.0 mph - N/A   Mostly Cloudy
5:53 AM 73.9 °F 66.0 °F 76% 29.96 in 10.0 mi South 17.3 mph 24.2 mph N/A   Partly Cloudy
6:53 AM 73.0 °F 66.0 °F 79% 29.94 in 10.0 mi South 19.6 mph 25.3 mph N/A   Clear
7:53 AM 73.0 °F 66.9 °F 81% 29.95 in 10.0 mi South 13.8 mph - N/A   Clear
8:53 AM 71.1 °F 64.0 °F 78% 30.12 in 10.0 mi North 24.2 mph 38.0 mph N/A   Scattered Clouds
9:05 AM 69.8 °F 60.8 °F 73% 30.13 in 10.0 mi NNE 18.4 mph 29.9 mph N/A   Mostly Cloudy
9:53 AM 66.0 °F 63.0 °F 90% 30.09 in 9.0 mi NNE 11.5 mph 20.7 mph 0.00 in Rain Light Rain
10:39 AM 64.4 °F 64.4 °F 100% 30.11 in 9.0 mi NNE 8.1 mph - 0.01 in Rain , Thunderstorm Light Thunderstorms and Rain
10:53 AM 64.9 °F 64.0 °F 97% 30.10 in 10.0 mi North 5.8 mph - 0.02 in Rain , Thunderstorm Light Thunderstorms and Rain
11:12 AM 64.4 °F 64.4 °F 100% 30.15 in 1.5 mi WNW 8.1 mph - 0.00 in Rain , Thunderstorm Heavy Thunderstorms and Rain
11:26 AM 64.4 °F 64.4 °F 100% 30.15 in 3.0 mi NW 3.5 mph - 0.14 in Rain , Thunderstorm Light Thunderstorms and Rain
11:53 AM 64.9 °F 64.0 °F 97% 30.09 in 6.0 mi East 10.4 mph - 0.19 in Rain , Thunderstorm Thunderstorms and Rain
12:14 PM 64.4 °F 64.4 °F 100% 30.06 in 10.0 mi SE 16.1 mph 23.0 mph 0.03 in   Overcast
12:53 PM 66.0 °F 63.0 °F 90% 29.97 in 10.0 mi SE 16.1 mph 21.9 mph 0.03 in   Mostly Cloudy
1:53 PM 69.1 °F 64.9 °F 87% 29.93 in 10.0 mi South 21.9 mph 33.4 mph N/A   Clear
2:53 PM 72.0 °F 66.0 °F 81% 29.92 in 10.0 mi South 18.4 mph 26.5 mph N/A   Clear
3:53 PM 73.9 °F 66.0 °F 76% 29.95 in 10.0 mi South 13.8 mph 21.9 mph N/A   Clear
4:53 PM 75.0 °F 66.0 °F 73% 29.96 in 10.0 mi South 15.0 mph - N/A   Clear
5:53 PM 75.0 °F 66.0 °F 73% 29.93 in 10.0 mi SSE 12.7 mph 21.9 mph N/A   Clear
6:53 PM 75.0 °F 66.0 °F 73% 29.95 in 10.0 mi SSE 10.4 mph - N/A   Clear
7:53 PM 73.9 °F 66.0 °F 76% 29.97 in 10.0 mi South 6.9 mph - N/A   Clear
8:53 PM 72.0 °F 66.9 °F 84% 29.99 in 10.0 mi East 5.8 mph - N/A   Overcast
9:53 PM - - N/A% 30.02 in - North - - N/A   Unknown
10:53 PM - - N/A% 30.02 in - North - - N/A   Unknown
11:53 PM - - N/A% 30.00 in - North - - N/A   Unknown